EW6196 Weather Reports


time (UTC)temp
C
wind
direction
speed
KPH
gust
KPH
rain 1hr
cm
rain 24hr
cm
rain mn
cm
humidity
%
barometer
mb
20260504045419 14 5 0.0 0.0 0.00 0.00 0.00 41 1000.5
20260504042419 15 5 0.0 0.0 0.00 0.00 0.00 40 1000.9
20260504035418 16 5 0.0 0.0 0.00 0.00 0.00 36 1001.6
20260504032417 16 5 0.0 0.0 0.00 0.00 0.00 33 1002.2
20260504025416 17 5 0.0 1.6 0.00 0.00 0.00 32 1002.4
20260504022417 17 5 0.0 3.2 0.00 0.00 0.00 30 1002.4
20260504015416 18 5 0.0 0.0 0.00 0.00 0.00 28 1002.5
20260504012415 19 5 0.0 9.7 0.00 0.00 0.00 27 1002.7
20260504005414 20 5 0.0 14.5 0.00 0.00 0.00 26 1002.8
20260504005210 20 5 0.0 3.2 0.00 0.00 0.00 25 1002.8
20260503235412 21 5 0.0 3.2 0.00 0.00 0.00 23 1003.0
20260503232412 22 5 0.0 8.0 0.00 0.00 0.00 21 1003.0
20260503230758 23 5 0.0 6.4 0.00 0.00 0.00 21 1003.3
20260503222409 23 5 0.0 8.0 0.00 0.00 0.00 20 1003.5
20260503215410 23 5 0.0 9.7 0.00 0.00 0.00 21 1003.6
20260503212408 23 5 0.0 17.7 0.00 0.00 0.00 20 1003.6
20260503205407 23 5 0.0 16.1 0.00 0.00 0.00 21 1003.9
20260503202407 22 5 0.0 9.7 0.00 0.00 0.00 22 1004.1
20260503195408 22 5 0.0 8.0 0.00 0.00 0.00 23 1004.5
20260503192408 22 5 0.0 6.4 0.00 0.00 0.00 23 1004.7
20260503185407 21 5 0.0 12.9 0.00 0.00 0.00 25 1004.7
20260503183751 21 5 0.0 6.4 0.00 0.00 0.00 31 1004.9
20260503180801 21 5 0.0 9.7 0.00 0.00 0.00 33 1005.0
20260503172404 21 5 0.0 8.0 0.00 0.00 0.00 35 1005.2